This is the latest recevied weather packets stored in our database for station/object KM4RT-13. If no packets are shown the sender has not sent any weather packets the latest 10 day(s).
| Time | Temp. | Humidity | Pressure | Rain* | Wind** | Luminosity | Snow |
|---|---|---|---|---|---|---|---|
| 1777771762 | 15° C | 52% | 1015.8 hPa | 0 mm | - | 0 W/m² | - |
| 1777771460 | 15° C | 52% | 1015.9 hPa | 0 mm | - | 0 W/m² | - |
| 1777771155 | 15° C | 52% | 1015.8 hPa | 0 mm | - | 0 W/m² | - |
| 1777770852 | 15.56° C | 50% | 1015.6 hPa | 0 mm | - | 0 W/m² | - |
| 1777770550 | 15.56° C | 49% | 1015.6 hPa | 0 mm | - | 0 W/m² | - |
| 1777770246 | 16.11° C | 47% | 1015.4 hPa | 0 mm | - | 0 W/m² | - |
| 1777769943 | 16.67° C | 46% | 1015.3 hPa | 0 mm | - | 0 W/m² | - |
| 1777769641 | 16.67° C | 46% | 1015.4 hPa | 0 mm | - | 1 W/m² | - |
| 1777769336 | 16.67° C | 44% | 1015.3 hPa | 0 mm | - | 2 W/m² | - |
| 1777769034 | 17.22° C | 42% | 1015.1 hPa | 0 mm | - | 4 W/m² | - |
| 1777768732 | 17.22° C | 41% | 1015.1 hPa | 0 mm | - | 6 W/m² | - |
| 1777768428 | 17.78° C | 41% | 1015.3 hPa | 0 mm | - | 9 W/m² | - |
| 1777768125 | 17.78° C | 40% | 1015 hPa | 0 mm | - | 12 W/m² | - |
| 1777767823 | 17.78° C | 41% | 1014.9 hPa | 0 mm | - | 15 W/m² | - |
| 1777767519 | 17.78° C | 40% | 1015 hPa | 0 mm | - | 18 W/m² | - |
| 1777767215 | 18.33° C | 38% | 1014.9 hPa | 0 mm | - | 24 W/m² | - |
| 1777766913 | 18.33° C | 39% | 1014.7 hPa | 0 mm | - | 28 W/m² | - |
| 1777766610 | 18.33° C | 39% | 1014.8 hPa | 0 mm | - | 34 W/m² | - |
| 1777766307 | 18.33° C | 39% | 1014.8 hPa | 0 mm | - | 39 W/m² | - |
| 1777766004 | 18.33° C | 40% | 1014.6 hPa | 0 mm | - | 45 W/m² | - |
| 1777765701 | 18.89° C | 41% | 1014.6 hPa | 0 mm | - | 33 W/m² | - |
| 1777765398 | 18.89° C | 40% | 1014.4 hPa | 0 mm | - | 60 W/m² | - |
| 1777765094 | 18.89° C | 39% | 1014.6 hPa | 0 mm | - | 68 W/m² | - |
| 1777764791 | 18.89° C | 39% | 1014.4 hPa | 0 mm | - | 48 W/m² | - |
| 1777764488 | 18.89° C | 40% | 1014.6 hPa | 0 mm | - | 70 W/m² | - |
* Rain latest hour (hover to see other rain measurements)
** Current wind speed in m/s (hover to see current wind gust speed)